AAL2299 YSSY-KLAX

Flight info

Callsign AAL2299
Flight time N/A
Altitude 31000
Route DIPSO G595 SOTKI DCT 3217S16014E 3135S16234E 3129S16300E 2945S16911E 2815S17411E 2651S17802E 2410S17632W/N0500F330 2041S17131W 1745S16820W 1338S16441W 0937S16137W 0500S15825W 0453S15820W 0044S15528W/N0493F350 0115N15359W 0554N15017W 0755N14842W 1159N14507W 1454N14208W 1845N13737W 2145N13350W/N0485F370 2356N13109W 2737N12650W 2933N12450W DCT FOOTS DCT ELKEY RYDRR2
Aircraft B77W/H-SDE1E2E3FGHIJ2J3J4J5M1RWXY/LB1D1

Departure

Time 2026-04-30 11:23
Airport Sydney Kingsford Smith International Airport (YSSY)

Arrival

Time N/A
Airport Los Angeles International Airport (KLAX)
Time Latitude Longitude Altitude Speed Heading
2026-04-30 10:19 -33.93953 151.16887 34 ft 0 kts 74°
2026-04-30 10:21 -33.93953 151.16886 34 ft 0 kts 74°
2026-04-30 10:40 -33.93953 151.16885 35 ft 0 kts 74°
2026-04-30 10:44 -33.93954 151.16885 35 ft 0 kts 74°
2026-04-30 11:04 -33.93955 151.16881 35 ft 3 kts 74°
2026-04-30 11:05 -33.93963 151.16851 32 ft 4 kts 58°
2026-04-30 11:05 -33.93978 151.16826 32 ft 4 kts 66°
2026-04-30 11:05 -33.93980 151.16800 31 ft 4 kts 131°
2026-04-30 11:05 -33.93959 151.16785 32 ft 4 kts 163°
2026-04-30 11:06 -33.93947 151.16780 35 ft 0 kts 164°
2026-04-30 11:09 -33.93951 151.16782 34 ft 1 kts 164°
2026-04-30 11:09 -33.93957 151.16784 35 ft 1 kts 164°
2026-04-30 11:10 -33.93963 151.16786 35 ft 1 kts 164°
2026-04-30 11:10 -33.93969 151.16788 35 ft 1 kts 164°
2026-04-30 11:10 -33.93976 151.16790 35 ft 1 kts 164°
2026-04-30 11:10 -33.93989 151.16795 35 ft 3 kts 165°
2026-04-30 11:11 -33.94015 151.16804 35 ft 5 kts 164°
2026-04-30 11:11 -33.94049 151.16824 35 ft 6 kts 133°
2026-04-30 11:11 -33.94053 151.16874 35 ft 7 kts 76°
2026-04-30 11:11 -33.94040 151.16935 34 ft 7 kts 74°
2026-04-30 11:12 -33.94026 151.16993 34 ft 6 kts 73°
2026-04-30 11:12 -33.94020 151.17016 34 ft 2 kts 73°
2026-04-30 11:12 -33.94017 151.17028 34 ft 2 kts 73°
2026-04-30 11:12 -33.94014 151.17040 34 ft 2 kts 73°
2026-04-30 11:13 -33.94010 151.17058 34 ft 4 kts 73°
2026-04-30 11:13 -33.93995 151.17118 34 ft 10 kts 73°
2026-04-30 11:13 -33.93985 151.17200 34 ft 9 kts 102°
2026-04-30 11:13 -33.94029 151.17240 34 ft 9 kts 163°
2026-04-30 11:14 -33.94108 151.17260 33 ft 14 kts 169°
2026-04-30 11:14 -33.94206 151.17285 33 ft 14 kts 167°
2026-04-30 11:14 -33.94303 151.17311 35 ft 14 kts 167°
2026-04-30 11:14 -33.94401 151.17336 35 ft 14 kts 168°
2026-04-30 11:15 -33.94499 151.17361 35 ft 14 kts 168°
2026-04-30 11:15 -33.94597 151.17387 35 ft 14 kts 168°
2026-04-30 11:15 -33.94695 151.17412 35 ft 14 kts 168°
2026-04-30 11:15 -33.94793 151.17438 35 ft 14 kts 168°
2026-04-30 11:16 -33.94890 151.17463 34 ft 14 kts 167°
2026-04-30 11:16 -33.94987 151.17489 34 ft 14 kts 167°
2026-04-30 11:16 -33.95086 151.17515 34 ft 14 kts 168°
2026-04-30 11:16 -33.95184 151.17540 34 ft 14 kts 168°
2026-04-30 11:17 -33.95281 151.17564 34 ft 14 kts 168°
2026-04-30 11:17 -33.95378 151.17589 34 ft 14 kts 168°
2026-04-30 11:17 -33.95476 151.17615 34 ft 14 kts 167°
2026-04-30 11:17 -33.95581 151.17642 34 ft 18 kts 168°
2026-04-30 11:18 -33.95711 151.17676 35 ft 19 kts 168°
2026-04-30 11:18 -33.95971 151.17744 35 ft 19 kts 167°
2026-04-30 11:18 -33.96101 151.17778 35 ft 19 kts 168°
2026-04-30 11:19 -33.96232 151.17811 35 ft 19 kts 168°
2026-04-30 11:19 -33.96338 151.17839 35 ft 10 kts 168°
2026-04-30 11:19 -33.96402 151.17858 35 ft 9 kts 158°
2026-04-30 11:19 -33.96433 151.17912 35 ft 7 kts 98°
2026-04-30 11:20 -33.96433 151.17936 35 ft 3 kts 84°
2026-04-30 11:20 -33.96428 151.17975 34 ft 9 kts 81°
2026-04-30 11:20 -33.96417 151.18038 34 ft 5 kts 69°
2026-04-30 11:20 -33.96387 151.18054 34 ft 2 kts 355°
2026-04-30 11:21 -33.96379 151.18051 34 ft 0 kts 347°
2026-04-30 11:22 -33.96378 151.18051 34 ft 1 kts 347°
2026-04-30 11:22 -33.96267 151.18023 34 ft 39 kts 348°
2026-04-30 11:22 -33.95762 151.17893 33 ft 107 kts 348°
2026-04-30 11:23 -33.94834 151.17652 34 ft 164 kts 348°
2026-04-30 11:23 -33.93595 151.17321 193 ft 186 kts 347°
2026-04-30 11:23 -33.91131 151.16691 1330 ft 184 kts 351°
2026-04-30 11:24 -33.89831 151.16370 1507 ft 198 kts 350°
2026-04-30 11:24 -33.88491 151.15846 1737 ft 210 kts 337°
2026-04-30 11:24 -33.87598 151.15309 1939 ft 215 kts 339°
2026-04-30 11:25 -33.84570 151.15107 2343 ft 237 kts 30°
2026-04-30 11:25 -33.83416 151.16511 2661 ft 244 kts 67°
2026-04-30 11:25 -33.83383 151.20608 3721 ft 252 kts 94°
2026-04-30 11:26 -33.83775 151.24823 4840 ft 260 kts 95°
2026-04-30 11:26 -33.83979 151.27022 5446 ft 262 kts 95°
2026-04-30 11:26 -33.84176 151.29174 6056 ft 263 kts 95°
2026-04-30 11:27 -33.84373 151.31365 6639 ft 265 kts 95°
2026-04-30 11:27 -33.84570 151.33585 7142 ft 268 kts 95°
2026-04-30 11:27 -33.84764 151.35803 7777 ft 267 kts 94°
2026-04-30 11:27 -33.84951 151.38032 8319 ft 268 kts 94°
2026-04-30 11:28 -33.85322 151.42591 9258 ft 279 kts 94°
2026-04-30 11:28 -33.85514 151.44915 9831 ft 279 kts 94°
2026-04-30 11:28 -33.85708 151.47251 10341 ft 282 kts 94°
2026-04-30 11:29 -33.85906 151.49637 10626 ft 293 kts 94°
2026-04-30 11:29 -33.86114 151.52149 10774 ft 310 kts 94°
2026-04-30 11:29 -33.86568 151.57619 11072 ft 347 kts 94°
2026-04-30 11:30 -33.87067 151.63656 11639 ft 374 kts 95°
2026-04-30 11:30 -33.87328 151.66785 12294 ft 378 kts 95°
2026-04-30 11:30 -33.87589 151.69941 13003 ft 382 kts 95°
2026-04-30 11:31 -33.87853 151.73143 13648 ft 388 kts 95°
2026-04-30 11:31 -33.88119 151.76397 14271 ft 394 kts 95°
2026-04-30 11:31 -33.88389 151.79698 14888 ft 398 kts 95°
2026-04-30 11:31 -33.88660 151.83018 15586 ft 400 kts 95°
2026-04-30 11:32 -33.88931 151.86363 16267 ft 403 kts 95°
2026-04-30 11:32 -33.89203 151.89734 16923 ft 406 kts 95°
2026-04-30 11:32 -33.89477 151.93130 17588 ft 410 kts 95°